This demonstration page uses our WeatherBlox Daily Observations layout. Learn more.

Left ArrowRight Arrow

39.92423, -83.80882

Hourly Observations for August 27, 2016

Temp ( °F °C ) Dew Point ( °F °C ) Humidity (%) Winds ( mph kmh ) Pressure ( in mb ) Visibility ( mi km ) Precip ( " mm )
12:56 am 00:56 Clear 71 21.7 69 20.6 94 94 ENE 7 11 30.11 1020 10 16.0934 N/A
1:56 am 01:56 Clear 71 21.7 68 20 90 90 ENE 3 6 30.11 1020 10 16.0934 N/A
2:56 am 02:56 Clear 69 20.6 67 19.4 93 93 E 5 7 30.11 1020 10 16.0934 N/A
3:56 am 03:56 Clear 68 20 67 19.4 96 96 E 5 7 30.11 1020 10 16.0934 N/A
4:56 am 04:56 Clear 68 20 67 19.4 96 96 E 7 11 30.1 1019 10 16.0934 N/A
5:56 am 05:56 Clear 68 20 67 19.4 96 96 E 6 9 30.1 1019 10 16.0934 N/A
6:56 am 06:56 Clear 69 20.6 67 19.4 93 93 E 6 9 30.11 1020 10 16.0934 N/A
7:56 am 07:56 Sunny 70 21.1 68 20 93 93 ESE 5 7 30.12 1020 10 16.0934 N/A
8:56 am 08:56 Sunny 72 22.2 69 20.6 91 91 E 5 7 30.13 1020 10 16.0934 N/A
9:56 am 09:56 Sunny 78 25.6 73 22.8 85 85 SE 8 13 30.14 1021 10 16.0934 N/A
10:56 am 10:56 Sunny 82 27.8 75 23.9 79 79 VRB 7 11 30.13 1020 10 16.0934 N/A
11:56 am 11:56 Sunny 85 29.4 75 23.9 72 72 S 7 11 30.13 1020 10 16.0934 N/A
12:48 pm 12:48 Mostly Cloudy 86 30 75 24 70 70 S 8 13 30.09 1019 10 16.0934 N/A
12:56 pm 12:56 Mostly Cloudy 86 30 76 24.4 72 72 SSE 8 13 30.11 1020 10 16.0934 N/A
1:56 pm 13:56 Partly Cloudy 87 30.6 75 23.9 67 67 S 7 11 30.1 1019 10 16.0934 N/A
2:56 pm 14:56 Partly Cloudy 88 31.1 75 23.9 66 66 SSE 7 11 30.09 1019 10 16.0934 N/A
3:13 pm 15:13 Partly Cloudy with Nearby Thunderstorms 88 31 75 24 66 66 SSE 8 13 30.06 1018 10 16.0934 N/A
3:38 pm 15:38 Windy with Storms Likely 73 23 68 20 83 83 WSW 23 37 30.15 1021 7 11.26538 N/A
3:51 pm 15:51 Cloudy with Heavy Thunderstorms 70 21 68 20 94 94 W 20 31 30.15 1021 4 6.43736 0.06 1.524
3:56 pm 15:56 Cloudy with Heavy Thunderstorms 69 20.6 68 20 96 96 WNW 18 30 30.16 1021 2 3.21868 0.19 4.826
4:04 pm 16:04 Cloudy with Rain 70 21 68 20 94 94 WNW 12 19 30.15 1021 4 6.43736 0.05 1.27
4:10 pm 16:10 Cloudy with Rain 70 21 68 20 94 94 WNW 9 15 30.15 1021 10 16.0934 0.06 1.524
4:20 pm 16:20 Cloudy with Nearby Thunderstorms 70 21 68 20 94 94 NNW 3 6 30.15 1021 10 16.0934 0.07 1.778
4:56 pm 16:56 Cloudy with Light Rain 71 21.7 70 21.1 96 96 ENE 9 15 30.12 1020 10 16.0934 0.12 3.048
5:56 pm 17:56 Sunny 74 23.3 71 21.7 91 91 E 6 9 30.11 1020 10 16.0934 N/A
6:56 pm 18:56 Sunny 74 23.3 71 21.7 91 91 ESE 6 9 30.09 1019 10 16.0934 N/A
7:56 pm 19:56 Sunny 74 23.3 71 21.7 91 91 SE 3 6 30.11 1020 10 16.0934 N/A
8:56 pm 20:56 Clear 71 21.7 70 21.1 96 96 E 3 6 30.14 1021 10 16.0934 N/A
9:56 pm 21:56 Clear 71 21.7 69 20.6 94 94 N N/A 30.14 1021 10 16.0934 N/A
10:56 pm 22:56 Clear 70 21.1 69 20.6 97 97 S 3 6 30.14 1021 10 16.0934 N/A
11:56 pm 23:56 Clear 69 20.6 68 20 96 96 N N/A 30.15 1021 10 16.0934 N/A

Powered by AerisWeather